QPF
0.01 0.00 0.00 0.00 0.01 0.02 0.03 0.04 0.05 0.06 0.05 0.03 0.03 0.04 0.05 0.04 0.03 0.03 0.03 0.03 0.04 0.04 0.06 0.08 0.09 0.08 0.09 0.10 0.09 0.09 0.10 0.11 0.09 0.09 0.11 0.10 0.09 0.11 0.09 0.08 0.08 0.06 0.03
0.01 0.00 0.00 0.01 0.01 0.01 0.02 0.04 0.04 0.04 0.03 0.03 0.03 0.04 0.05 0.05 0.04 0.05 0.05 0.04 0.04 0.05 0.07 0.08 0.07 0.08 0.10 0.11 0.12 0.12 0.11 0.12 0.11 0.11 0.13 0.15 0.16 0.15 0.09 0.08 0.07 0.06 0.04
0.00 0.00 0.00 0.00 0.01 0.01 0.02 0.02 0.03 0.03 0.03 0.03 0.03 0.03 0.05 0.04 0.05 0.06 0.07 0.06 0.05 0.05 0.06 0.06 0.05 0.08 0.09 0.12 0.13 0.12 0.11 0.13 0.13 0.12 0.12 0.13 0.14 0.15 0.12 0.10 0.08 0.07 0.05
0.00 0.00 0.00 0.00 0.00 0.01 0.01 0.01 0.02 0.03 0.03 0.02 0.03 0.03 0.03 0.03 0.04 0.05 0.07 0.07 0.04 0.04 0.05 0.05 0.07 0.09 0.10 0.12 0.12 0.12 0.12 0.14 0.13 0.13 0.12 0.11 0.09 0.11 0.13 0.11 0.09 0.08 0.06
0.00 0.00 0.00 0.00 0.00 0.00 0.01 0.02 0.02 0.03 0.03 0.02 0.02 0.03 0.04 0.04 0.05 0.05 0.07 0.07 0.06 0.05 0.04 0.06 0.07 0.07 0.07 0.07 0.09 0.11 0.12 0.13 0.13 0.12 0.11 0.10 0.09 0.09 0.10 0.10 0.09 0.07 0.06
0.00 0.00 0.00 0.00 0.00 0.00 0.01 0.02 0.03 0.03 0.03 0.02 0.03 0.03 0.04 0.05 0.06 0.07 0.08 0.07 0.07 0.07 0.06 0.05 0.06 0.05 0.06 0.05 0.06 0.07 0.09 0.09 0.09 0.09 0.07 0.07 0.07 0.09 0.10 0.09 0.08 0.06 0.03
0.00 0.00 0.00 0.00 0.00 0.00 0.00 0.02 0.03 0.03 0.03 0.02 0.03 0.03 0.04 0.05 0.05 0.05 0.07 0.06 0.05 0.07 0.08 0.08 0.07 0.07 0.06 0.06 0.06 0.07 0.08 0.08 0.07 0.06 0.06 0.06 0.06 0.08 0.08 0.07 0.06 0.05 0.04
0.00 0.00 0.01 0.01 0.00 0.00 0.01 0.01 0.01 0.01 0.02 0.03 0.03 0.03 0.03 0.04 0.04 0.05 0.06 0.05 0.06 0.08 0.09 0.07 0.06 0.07 0.06 0.06 0.08 0.07 0.06 0.06 0.05 0.05 0.06 0.06 0.06 0.05 0.06 0.07 0.08 0.08 0.07
0.00 0.00 0.00 0.00 0.00 0.01 0.01 0.01 0.01 0.01 0.01 0.02 0.03 0.03 0.03 0.04 0.04 0.05 0.06 0.05 0.06 0.06 0.07 0.05 0.05 0.05 0.07 0.10 0.10 0.09 0.07 0.06 0.06 0.07 0.08 0.08 0.07 0.06 0.06 0.07 0.08 0.09 0.10
0.00 0.00 0.00 0.00 0.00 0.00 0.00 0.00 0.01 0.01 0.01 0.01 0.03 0.03 0.04 0.04 0.04 0.04 0.03 0.04 0.05 0.04 0.05 0.05 0.04 0.04 0.05 0.06 0.07 0.06 0.06 0.06 0.07 0.08 0.08 0.07 0.06 0.06 0.05 0.06 0.06 0.09 0.10
0.01 0.00 0.00 0.00 0.00 0.00 0.00 0.00 0.00 0.01 0.01 0.02 0.02 0.02 0.02 0.02 0.03 0.02 0.03 0.04 0.05 0.03 0.03 0.04 0.04 0.04 0.04 0.05 0.05 0.05 0.06 0.04 0.06 0.07 0.07 0.07 0.07 0.07 0.06 0.05 0.06 0.08 0.09
0.01 0.01 0.00 0.00 0.00 0.00 0.00 0.00 0.01 0.01 0.01 0.01 0.02 0.02 0.02 0.03 0.02 0.02 0.03 0.03 0.03 0.04 0.03 0.04 0.04 0.04 0.05 0.05 0.05 0.05 0.06 0.06 0.06 0.06 0.06 0.05 0.06 0.06 0.06 0.06 0.07 0.08 0.09
0.01 0.01 0.01 0.01 0.02 0.01 0.01 0.01 0.01 0.01 0.01 0.01 0.01 0.01 0.02 0.02 0.03 0.04 0.03 0.03 0.03 0.03 0.03 0.03 0.04 0.04 0.05 0.06 0.06 0.07 0.08 0.07 0.06 0.07 0.06 0.05 0.05 0.05 0.06 0.07 0.08 0.08 0.06
0.02 0.02 0.02 0.03 0.03 0.04 0.04 0.04 0.03 0.02 0.02 0.02 0.02 0.02 0.03 0.04 0.05 0.04 0.05 0.06 0.06 0.04 0.04 0.04 0.04 0.04 0.04 0.05 0.06 0.06 0.05 0.05 0.06 0.06 0.06 0.05 0.05 0.05 0.05 0.05 0.06 0.07 0.07
0.01 0.02 0.03 0.04 0.04 0.04 0.04 0.04 0.05 0.04 0.04 0.03 0.03 0.03 0.04 0.04 0.04 0.04 0.04 0.05 0.06 0.04 0.04 0.05 0.05 0.05 0.04 0.03 0.04 0.04 0.04 0.05 0.06 0.05 0.05 0.05 0.04 0.05 0.05 0.05 0.05 0.06 0.06
0.01 0.01 0.01 0.02 0.02 0.03 0.04 0.04 0.04 0.04 0.04 0.04 0.03 0.03 0.03 0.03 0.04 0.04 0.04 0.04 0.04 0.05 0.05 0.04 0.05 0.06 0.05 0.05 0.05 0.06 0.06 0.05 0.05 0.04 0.04 0.03 0.02 0.03 0.03 0.03 0.03 0.04 0.05
0.00 0.00 0.00 0.00 0.00 0.01 0.02 0.02 0.03 0.02 0.02 0.02 0.03 0.03 0.03 0.03 0.04 0.03 0.04 0.03 0.04 0.05 0.05 0.04 0.05 0.05 0.07 0.08 0.07 0.08 0.09 0.08 0.06 0.05 0.04 0.03 0.02 0.02 0.02 0.02 0.02 0.02 0.02
0.00 0.00 0.00 0.00 0.01 0.01 0.01 0.01 0.01 0.01 0.02 0.02 0.02 0.03 0.03 0.03 0.04 0.04 0.04 0.04 0.04 0.04 0.06 0.09 0.10 0.10 0.11 0.12 0.11 0.13 0.14 0.12 0.08 0.06 0.05 0.05 0.04 0.04 0.03 0.02 0.02 0.02 0.02
0.00 0.00 0.00 0.00 0.00 0.00 0.00 0.01 0.01 0.01 0.01 0.02 0.02 0.02 0.02 0.02 0.03 0.03 0.03 0.04 0.05 0.04 0.05 0.09 0.13 0.14 0.16 0.18 0.17 0.17 0.16 0.13 0.09 0.07 0.07 0.07 0.05 0.05 0.04 0.03 0.03 0.03 0.03
0.01 0.00 0.00 0.00 0.00 0.00 0.01 0.01 0.01 0.01 0.01 0.01 0.02 0.02 0.03 0.04 0.04 0.04 0.03 0.03 0.03 0.04 0.04 0.04 0.04 0.04 0.05 0.07 0.07 0.07 0.07 0.07 0.06 0.06 0.06 0.06 0.05 0.05 0.04 0.03 0.02 0.02 0.03
0.01 0.00 0.01 0.01 0.00 0.00 0.01 0.01 0.01 0.01 0.02 0.03 0.02 0.02 0.02 0.03 0.04 0.04 0.05 0.04 0.04 0.04 0.04 0.04 0.05 0.04 0.03 0.04 0.04 0.05 0.04 0.04 0.04 0.03 0.03 0.03 0.03 0.04 0.03 0.02 0.01 0.02 0.02
0.01 0.01 0.01 0.00 0.00 0.00 0.01 0.01 0.01 0.02 0.03 0.04 0.03 0.03 0.02 0.02 0.03 0.05 0.05 0.05 0.05 0.05 0.05 0.05 0.05 0.05 0.04 0.03 0.04 0.05 0.05 0.05 0.04 0.03 0.03 0.04 0.04 0.03 0.02 0.02 0.02 0.03 0.04
0.01 0.01 0.01 0.00 0.01 0.01 0.01 0.01 0.02 0.03 0.03 0.04 0.04 0.04 0.03 0.04 0.04 0.05 0.04 0.05 0.06 0.05 0.06 0.06 0.05 0.05 0.05 0.05 0.06 0.05 0.05 0.05 0.05 0.04 0.04 0.05 0.06 0.06 0.05 0.05 0.06 0.06 0.06
0.01 0.01 0.01 0.01 0.01 0.01 0.01 0.01 0.03 0.03 0.03 0.03 0.04 0.05 0.05 0.05 0.04 0.04 0.04 0.04 0.04 0.04 0.05 0.05 0.06 0.05 0.05 0.04 0.04 0.04 0.04 0.05 0.04 0.04 0.05 0.05 0.06 0.07 0.06 0.07 0.07 0.07 0.07
0.01 0.01 0.01 0.01 0.01 0.02 0.01 0.01 0.02 0.03 0.04 0.04 0.05 0.05 0.06 0.06 0.05 0.04 0.05 0.04 0.03 0.03 0.03 0.03 0.03 0.03 0.03 0.04 0.04 0.03 0.04 0.05 0.05 0.05 0.04 0.04 0.06 0.06 0.07 0.08 0.08 0.09 0.07
0.02 0.02 0.03 0.03 0.02 0.03 0.03 0.03 0.03 0.04 0.05 0.05 0.06 0.06 0.05 0.05 0.05 0.05 0.06 0.05 0.04 0.05 0.05 0.05 0.04 0.04 0.04 0.04 0.03 0.03 0.03 0.04 0.05 0.04 0.04 0.04 0.05 0.06 0.06 0.07 0.07 0.06 0.05
MSLP
1004.52 1004.98 1005.43 1005.87 1006.28 1006.69 1007.10 1007.53 1007.97 1008.41 1008.82 1009.18 1009.47 1009.66 1009.76 1009.78 1009.74 1009.67 1009.59 1009.54 1009.53 1009.58 1009.70 1009.89 1010.15 1010.48 1010.86 1011.28 1011.72 1012.14 1012.51 1012.80 1012.96 1012.99 1012.87 1012.62 1012.27 1011.84 1011.41 1011.01 1010.70 1010.50 1010.43
1004.18 1004.68 1005.16 1005.61 1006.03 1006.43 1006.84 1007.27 1007.73 1008.19 1008.64 1009.04 1009.37 1009.60 1009.72 1009.73 1009.67 1009.56 1009.44 1009.35 1009.32 1009.36 1009.48 1009.68 1009.96 1010.30 1010.70 1011.12 1011.56 1011.98 1012.37 1012.67 1012.87 1012.95 1012.89 1012.69 1012.38 1011.98 1011.54 1011.12 1010.75 1010.47 1010.30
1003.94 1004.46 1004.97 1005.43 1005.86 1006.26 1006.66 1007.09 1007.55 1008.04 1008.52 1008.97 1009.35 1009.62 1009.77 1009.80 1009.74 1009.62 1009.48 1009.37 1009.32 1009.34 1009.45 1009.64 1009.91 1010.23 1010.60 1011.00 1011.40 1011.80 1012.16 1012.47 1012.70 1012.83 1012.84 1012.73 1012.51 1012.18 1011.80 1011.39 1011.01 1010.68 1010.44
1003.91 1004.44 1004.97 1005.44 1005.87 1006.27 1006.66 1007.08 1007.54 1008.05 1008.56 1009.06 1009.48 1009.81 1010.00 1010.07 1010.03 1009.92 1009.77 1009.65 1009.58 1009.58 1009.66 1009.82 1010.05 1010.32 1010.63 1010.96 1011.30 1011.63 1011.95 1012.25 1012.50 1012.68 1012.78 1012.78 1012.66 1012.45 1012.16 1011.81 1011.45 1011.11 1010.82
1004.16 1004.71 1005.25 1005.73 1006.16 1006.54 1006.92 1007.32 1007.78 1008.29 1008.83 1009.35 1009.83 1010.20 1010.45 1010.56 1010.55 1010.46 1010.33 1010.19 1010.10 1010.07 1010.11 1010.22 1010.38 1010.58 1010.80 1011.04 1011.29 1011.55 1011.82 1012.09 1012.34 1012.58 1012.75 1012.86 1012.87 1012.78 1012.59 1012.33 1012.02 1011.68 1011.35
1004.78 1005.34 1005.89 1006.37 1006.78 1007.14 1007.49 1007.86 1008.29 1008.79 1009.33 1009.88 1010.39 1010.80 1011.10 1011.26 1011.28 1011.21 1011.09 1010.95 1010.83 1010.76 1010.75 1010.80 1010.88 1010.99 1011.12 1011.26 1011.42 1011.59 1011.80 1012.03 1012.29 1012.56 1012.80 1013.00 1013.12 1013.14 1013.07 1012.89 1012.63 1012.31 1011.96
1005.77 1006.34 1006.88 1007.35 1007.73 1008.06 1008.36 1008.68 1009.07 1009.53 1010.05 1010.60 1011.11 1011.55 1011.88 1012.07 1012.13 1012.08 1011.96 1011.82 1011.68 1011.57 1011.51 1011.48 1011.49 1011.52 1011.57 1011.62 1011.69 1011.80 1011.95 1012.15 1012.39 1012.67 1012.96 1013.22 1013.42 1013.53 1013.54 1013.42 1013.21 1012.92 1012.57
1007.07 1007.65 1008.18 1008.62 1008.96 1009.23 1009.46 1009.71 1010.03 1010.43 1010.91 1011.42 1011.92 1012.36 1012.71 1012.91 1012.99 1012.96 1012.84 1012.69 1012.53 1012.39 1012.28 1012.21 1012.16 1012.13 1012.11 1012.11 1012.12 1012.18 1012.28 1012.45 1012.68 1012.95 1013.25 1013.54 1013.78 1013.93 1013.98 1013.91 1013.73 1013.45 1013.10
1008.54 1009.13 1009.65 1010.05 1010.33 1010.52 1010.67 1010.83 1011.07 1011.38 1011.78 1012.24 1012.71 1013.13 1013.46 1013.68 1013.76 1013.74 1013.63 1013.48 1013.31 1013.16 1013.03 1012.93 1012.85 1012.79 1012.74 1012.71 1012.70 1012.72 1012.80 1012.95 1013.15 1013.40 1013.68 1013.96 1014.19 1014.35 1014.40 1014.34 1014.17 1013.90 1013.55
1010.01 1010.61 1011.10 1011.46 1011.66 1011.77 1011.83 1011.90 1012.03 1012.25 1012.57 1012.96 1013.37 1013.76 1014.07 1014.28 1014.38 1014.37 1014.28 1014.14 1013.98 1013.83 1013.70 1013.60 1013.53 1013.47 1013.43 1013.40 1013.39 1013.42 1013.49 1013.62 1013.79 1014.01 1014.25 1014.48 1014.67 1014.79 1014.82 1014.74 1014.55 1014.28 1013.94
1011.28 1011.88 1012.34 1012.64 1012.78 1012.81 1012.78 1012.76 1012.81 1012.95 1013.19 1013.51 1013.86 1014.21 1014.51 1014.72 1014.82 1014.83 1014.77 1014.66 1014.53 1014.42 1014.32 1014.25 1014.21 1014.18 1014.17 1014.17 1014.19 1014.23 1014.30 1014.42 1014.56 1014.74 1014.92 1015.09 1015.22 1015.28 1015.25 1015.13 1014.92 1014.64 1014.30
1012.19 1012.78 1013.21 1013.46 1013.55 1013.52 1013.43 1013.35 1013.34 1013.42 1013.60 1013.87 1014.19 1014.51 1014.79 1015.01 1015.13 1015.18 1015.16 1015.10 1015.03 1014.96 1014.91 1014.89 1014.90 1014.92 1014.95 1014.99 1015.04 1015.10 1015.18 1015.28 1015.40 1015.53 1015.66 1015.76 1015.81 1015.80 1015.72 1015.55 1015.32 1015.03 1014.69
1012.65 1013.23 1013.64 1013.86 1013.92 1013.87 1013.76 1013.66 1013.63 1013.69 1013.85 1014.10 1014.40 1014.71 1015.00 1015.23 1015.39 1015.48 1015.52 1015.52 1015.51 1015.51 1015.52 1015.56 1015.61 1015.67 1015.74 1015.82 1015.89 1015.97 1016.05 1016.14 1016.24 1016.33 1016.40 1016.44 1016.43 1016.36 1016.22 1016.02 1015.76 1015.46 1015.13
1012.67 1013.24 1013.63 1013.85 1013.92 1013.89 1013.82 1013.76 1013.76 1013.84 1014.03 1014.28 1014.59 1014.92 1015.22 1015.48 1015.68 1015.82 1015.92 1015.99 1016.04 1016.10 1016.17 1016.25 1016.34 1016.44 1016.53 1016.62 1016.70 1016.78 1016.86 1016.93 1017.01 1017.06 1017.10 1017.09 1017.04 1016.93 1016.75 1016.52 1016.24 1015.93 1015.61
1012.35 1012.91 1013.31 1013.55 1013.67 1013.71 1013.72 1013.75 1013.83 1013.98 1014.22 1014.52 1014.86 1015.20 1015.53 1015.82 1016.06 1016.25 1016.40 1016.52 1016.63 1016.74 1016.86 1016.97 1017.08 1017.19 1017.28 1017.36 1017.43 1017.50 1017.55 1017.61 1017.66 1017.69 1017.70 1017.67 1017.59 1017.46 1017.27 1017.02 1016.73 1016.42 1016.10
1011.85 1012.39 1012.82 1013.12 1013.32 1013.47 1013.60 1013.75 1013.95 1014.21 1014.52 1014.88 1015.26 1015.63 1015.98 1016.29 1016.55 1016.77 1016.96 1017.12 1017.28 1017.42 1017.55 1017.68 1017.79 1017.89 1017.96 1018.02 1018.06 1018.09 1018.11 1018.14 1018.17 1018.19 1018.18 1018.15 1018.07 1017.93 1017.73 1017.48 1017.19 1016.88 1016.56
1011.32 1011.87 1012.33 1012.71 1013.03 1013.31 1013.58 1013.88 1014.21 1014.58 1014.98 1015.40 1015.81 1016.20 1016.56 1016.87 1017.14 1017.37 1017.58 1017.76 1017.92 1018.08 1018.22 1018.34 1018.44 1018.51 1018.55 1018.57 1018.57 1018.56 1018.55 1018.55 1018.56 1018.56 1018.56 1018.52 1018.44 1018.31 1018.12 1017.88 1017.59 1017.27 1016.94
1010.94 1011.50 1012.00 1012.46 1012.89 1013.31 1013.73 1014.17 1014.63 1015.10 1015.58 1016.05 1016.49 1016.88 1017.23 1017.52 1017.78 1017.99 1018.19 1018.36 1018.53 1018.68 1018.82 1018.93 1019.01 1019.05 1019.06 1019.03 1018.99 1018.95 1018.91 1018.88 1018.86 1018.85 1018.84 1018.80 1018.73 1018.61 1018.42 1018.18 1017.89 1017.57 1017.22
1010.78 1011.35 1011.90 1012.43 1012.96 1013.50 1014.04 1014.60 1015.17 1015.73 1016.26 1016.76 1017.20 1017.58 1017.90 1018.16 1018.38 1018.57 1018.73 1018.89 1019.05 1019.19 1019.32 1019.42 1019.48 1019.51 1019.49 1019.44 1019.37 1019.30 1019.23 1019.17 1019.13 1019.10 1019.08 1019.03 1018.95 1018.83 1018.65 1018.40 1018.11 1017.77 1017.42
1010.86 1011.43 1012.01 1012.60 1013.21 1013.83 1014.46 1015.11 1015.74 1016.35 1016.92 1017.42 1017.85 1018.20 1018.49 1018.71 1018.88 1019.03 1019.17 1019.31 1019.45 1019.59 1019.71 1019.81 1019.88 1019.90 1019.88 1019.83 1019.75 1019.65 1019.56 1019.48 1019.41 1019.35 1019.30 1019.24 1019.14 1019.00 1018.81 1018.56 1018.26 1017.91 1017.54
1011.13 1011.70 1012.29 1012.91 1013.56 1014.22 1014.91 1015.60 1016.27 1016.90 1017.47 1017.96 1018.37 1018.69 1018.93 1019.11 1019.24 1019.36 1019.47 1019.60 1019.73 1019.87 1020.01 1020.12 1020.21 1020.25 1020.25 1020.21 1020.13 1020.03 1019.92 1019.82 1019.72 1019.62 1019.54 1019.43 1019.31 1019.15 1018.93 1018.67 1018.36 1018.01 1017.64
1011.50 1012.06 1012.65 1013.27 1013.93 1014.60 1015.30 1015.99 1016.66 1017.29 1017.84 1018.32 1018.70 1018.98 1019.19 1019.34 1019.45 1019.54 1019.64 1019.76 1019.90 1020.05 1020.21 1020.36 1020.48 1020.56 1020.59 1020.57 1020.51 1020.42 1020.30 1020.17 1020.04 1019.90 1019.76 1019.62 1019.45 1019.26 1019.02 1018.75 1018.44 1018.10 1017.74
1011.90 1012.45 1013.02 1013.62 1014.26 1014.92 1015.59 1016.26 1016.91 1017.51 1018.04 1018.49 1018.84 1019.11 1019.30 1019.42 1019.52 1019.60 1019.70 1019.82 1019.97 1020.15 1020.34 1020.52 1020.68 1020.80 1020.88 1020.90 1020.86 1020.77 1020.65 1020.49 1020.32 1020.14 1019.96 1019.76 1019.55 1019.33 1019.08 1018.81 1018.51 1018.20 1017.86
1012.25 1012.79 1013.34 1013.92 1014.52 1015.15 1015.78 1016.42 1017.03 1017.59 1018.09 1018.51 1018.84 1019.09 1019.27 1019.39 1019.48 1019.57 1019.67 1019.80 1019.96 1020.16 1020.38 1020.60 1020.80 1020.96 1021.07 1021.12 1021.10 1021.03 1020.90 1020.72 1020.52 1020.30 1020.06 1019.82 1019.58 1019.34 1019.09 1018.83 1018.57 1018.29 1018.01
1012.53 1013.06 1013.60 1014.16 1014.73 1015.32 1015.91 1016.50 1017.07 1017.59 1018.06 1018.45 1018.76 1019.00 1019.17 1019.29 1019.38 1019.47 1019.57 1019.71 1019.89 1020.10 1020.33 1020.58 1020.80 1020.99 1021.13 1021.20 1021.20 1021.13 1020.99 1020.79 1020.56 1020.31 1020.04 1019.78 1019.52 1019.27 1019.04 1018.82 1018.60 1018.38 1018.16
1012.73 1013.27 1013.81 1014.36 1014.91 1015.47 1016.03 1016.58 1017.10 1017.58 1018.01 1018.37 1018.66 1018.87 1019.03 1019.14 1019.23 1019.32 1019.42 1019.56 1019.74 1019.95 1020.19 1020.44 1020.68 1020.88 1021.03 1021.11 1021.11 1021.03 1020.89 1020.68 1020.43 1020.16 1019.88 1019.61 1019.35 1019.13 1018.93 1018.75 1018.59 1018.45 1018.30
Thickness
5844 5843 5840 5837 5833 5828 5824 5820 5818 5816 5814 5812 5809 5806 5804 5805 5805 5804 5802 5801 5800 5799 5797 5796 5794 5793 5790 5788 5786 5784 5781 5780 5781 5776 5773 5776 5779 5778 5777 5776 5774 5773 5771
5843 5842 5841 5839 5834 5829 5825 5822 5819 5817 5815 5814 5812 5810 5808 5807 5806 5805 5803 5801 5800 5799 5799 5796 5794 5792 5790 5788 5786 5784 5780 5780 5781 5775 5768 5763 5766 5771 5777 5775 5773 5773 5772
5845 5843 5841 5839 5836 5831 5827 5825 5822 5820 5817 5816 5814 5812 5809 5806 5804 5802 5801 5802 5801 5799 5798 5797 5795 5793 5791 5788 5787 5785 5781 5777 5779 5779 5771 5762 5757 5763 5769 5772 5772 5771 5770
5853 5849 5845 5841 5839 5836 5833 5829 5825 5822 5819 5818 5814 5809 5804 5800 5802 5803 5802 5802 5802 5800 5798 5797 5796 5794 5792 5790 5788 5786 5784 5779 5775 5776 5776 5773 5769 5759 5757 5764 5769 5769 5767
5857 5853 5850 5846 5844 5842 5837 5833 5828 5823 5821 5818 5815 5810 5807 5806 5806 5805 5803 5801 5801 5800 5799 5797 5795 5793 5791 5790 5788 5786 5783 5780 5777 5774 5773 5771 5769 5767 5757 5753 5758 5763 5766
5862 5857 5855 5850 5846 5844 5839 5834 5827 5823 5821 5818 5815 5811 5808 5807 5804 5802 5800 5799 5799 5799 5798 5797 5795 5793 5791 5789 5787 5785 5782 5779 5777 5775 5773 5769 5765 5761 5758 5753 5753 5755 5760
5863 5857 5851 5847 5845 5843 5839 5834 5828 5822 5821 5818 5815 5813 5810 5808 5805 5802 5801 5799 5798 5797 5796 5796 5794 5792 5790 5788 5786 5783 5781 5778 5776 5773 5771 5770 5768 5766 5761 5755 5752 5752 5756
5863 5858 5854 5849 5845 5843 5840 5835 5829 5823 5821 5818 5815 5814 5811 5809 5807 5804 5803 5800 5799 5798 5797 5795 5793 5791 5789 5788 5785 5782 5780 5778 5775 5773 5770 5768 5767 5766 5762 5757 5751 5746 5748
5861 5858 5855 5852 5848 5845 5841 5837 5830 5824 5821 5819 5815 5813 5810 5808 5806 5804 5802 5801 5799 5798 5796 5794 5791 5789 5787 5786 5783 5780 5778 5776 5773 5771 5769 5766 5765 5764 5763 5760 5756 5747 5740
5861 5859 5855 5852 5850 5847 5843 5839 5832 5826 5822 5819 5815 5812 5809 5807 5805 5803 5800 5798 5797 5796 5794 5791 5789 5787 5785 5783 5781 5778 5777 5774 5771 5769 5766 5764 5763 5762 5761 5758 5756 5752 5744
5858 5857 5855 5852 5851 5847 5842 5836 5831 5825 5821 5818 5814 5811 5808 5806 5804 5801 5799 5797 5795 5793 5791 5789 5787 5784 5782 5781 5778 5776 5774 5771 5768 5766 5764 5761 5760 5758 5757 5755 5753 5749 5746
5856 5855 5853 5849 5845 5841 5838 5833 5829 5824 5820 5817 5813 5810 5807 5804 5801 5799 5797 5795 5792 5790 5788 5786 5784 5782 5780 5779 5776 5773 5771 5768 5765 5763 5760 5758 5757 5754 5752 5750 5747 5745 5743
5849 5848 5844 5841 5839 5836 5833 5830 5827 5823 5820 5816 5811 5807 5804 5802 5799 5797 5795 5793 5790 5787 5785 5783 5781 5779 5778 5776 5774 5771 5768 5766 5763 5760 5756 5754 5752 5749 5747 5745 5742 5740 5740
5838 5837 5834 5832 5832 5830 5828 5825 5823 5820 5817 5813 5808 5804 5802 5800 5797 5795 5793 5790 5787 5784 5782 5780 5778 5777 5775 5773 5770 5767 5764 5762 5760 5758 5754 5751 5748 5745 5743 5741 5738 5736 5732
5827 5827 5826 5823 5823 5822 5821 5820 5818 5816 5813 5808 5804 5801 5799 5797 5794 5792 5789 5787 5784 5782 5779 5776 5774 5773 5772 5770 5767 5764 5761 5757 5754 5752 5750 5748 5745 5743 5739 5736 5732 5729 5726
5818 5819 5819 5816 5815 5815 5814 5812 5811 5810 5808 5803 5800 5798 5795 5792 5790 5788 5786 5783 5780 5777 5774 5772 5770 5768 5768 5765 5762 5759 5756 5753 5749 5746 5744 5743 5740 5737 5734 5731 5727 5723 5719
5810 5811 5811 5810 5810 5810 5809 5806 5806 5805 5802 5798 5796 5793 5791 5788 5786 5784 5781 5778 5775 5773 5769 5767 5765 5763 5761 5759 5757 5754 5751 5748 5745 5741 5738 5737 5736 5731 5727 5724 5720 5717 5714
5804 5804 5804 5805 5806 5806 5805 5803 5801 5797 5795 5792 5789 5788 5785 5782 5780 5778 5775 5773 5770 5767 5764 5762 5760 5758 5756 5753 5750 5747 5745 5742 5740 5736 5733 5729 5727 5725 5720 5717 5713 5710 5707
5798 5798 5800 5800 5800 5798 5798 5795 5791 5789 5787 5785 5783 5782 5780 5777 5774 5771 5769 5767 5764 5762 5759 5757 5755 5752 5749 5746 5743 5740 5738 5736 5733 5731 5728 5724 5721 5717 5712 5708 5705 5702 5700
5790 5790 5792 5792 5790 5789 5788 5784 5781 5779 5777 5777 5777 5775 5773 5770 5768 5765 5763 5761 5759 5756 5754 5751 5749 5747 5743 5740 5736 5733 5732 5728 5726 5723 5720 5717 5713 5708 5704 5700 5697 5693 5691
5782 5782 5782 5780 5780 5780 5778 5772 5770 5769 5770 5770 5769 5767 5765 5763 5762 5759 5757 5755 5752 5750 5747 5745 5743 5741 5738 5734 5730 5726 5724 5722 5719 5715 5712 5709 5705 5701 5697 5693 5690 5686 5684
5772 5772 5770 5769 5770 5770 5767 5762 5761 5763 5763 5762 5761 5759 5758 5757 5756 5752 5749 5748 5745 5741 5739 5737 5734 5733 5731 5728 5723 5719 5716 5714 5710 5707 5705 5701 5696 5692 5689 5685 5682 5679 5676
5761 5762 5760 5758 5759 5759 5757 5753 5754 5755 5754 5753 5752 5750 5749 5748 5747 5745 5742 5739 5737 5734 5731 5728 5725 5723 5722 5719 5715 5711 5707 5704 5701 5698 5695 5691 5686 5682 5679 5676 5673 5670 5667
5750 5751 5749 5746 5745 5747 5748 5747 5747 5746 5745 5743 5742 5741 5740 5739 5738 5736 5735 5731 5728 5725 5722 5720 5717 5714 5711 5708 5704 5701 5697 5693 5690 5687 5683 5680 5676 5673 5669 5666 5664 5662 5659
5739 5739 5736 5734 5734 5736 5736 5738 5738 5736 5734 5733 5732 5732 5732 5731 5728 5726 5724 5721 5718 5715 5713 5712 5710 5706 5702 5700 5695 5692 5688 5684 5681 5676 5673 5670 5667 5664 5661 5658 5655 5653 5650
5728 5727 5725 5724 5724 5725 5725 5727 5727 5726 5723 5722 5722 5722 5722 5721 5718 5715 5711 5707 5706 5705 5703 5702 5700 5698 5694 5689 5685 5681 5678 5674 5670 5666 5663 5661 5659 5656 5653 5650 5647 5645 5642